• în Republica Moldova
  • Lista ţărilor
  • Pe 7 zile
  • Temperatura apei
  • Hartă satelitară
  • Meteo pe hartă
  • Widget-uri
  • user-avatar
    Intrare

    Meteo pe oră la Ghanzi

    Astăzi, 23 Ianuarie, Miercuri

    Timp Temperatura Precipitaţii Vânt Presiune Umiditate
    00:00 +15°C° 0 mm 2 m/s 714 mmHg 21%
    01:00 +14°C° 0 mm 2 m/s 713 mmHg 22%
    02:00 +14°C° 0 mm 2 m/s 713 mmHg 22%
    03:00 +13°C° 0 mm 2 m/s 712 mmHg 22%
    04:00 +13°C° 0 mm 1 m/s 712 mmHg 22%
    05:00 +13°C° 0 mm 1 m/s 712 mmHg 21%
    06:00 +14°C° 0 mm 1 m/s 712 mmHg 20%
    07:00 +14°C° 0 mm 1 m/s 712 mmHg 19%
    08:00 +17°C° 0 mm 2 m/s 713 mmHg 16%
    09:00 +20°C° 0 mm 2 m/s 713 mmHg 14%
    10:00 +25°C° 0 mm 2 m/s 714 mmHg 11%
    11:00 +27°C° 0 mm 3 m/s 713 mmHg 10%
    12:00 +29°C° 0 mm 4 m/s 713 mmHg 10%
    13:00 +32°C° 0 mm 6 m/s 712 mmHg 10%
    14:00 +32°C° 0 mm 5 m/s 711 mmHg 10%
    15:00 +32°C° 0 mm 5 m/s 711 mmHg 11%
    16:00 +32°C° 0 mm 5 m/s 710 mmHg 11%
    17:00 +29°C° 0 mm 4 m/s 710 mmHg 14%
    18:00 +27°C° 0 mm 4 m/s 710 mmHg 16%
    19:00 +25°C° 0 mm 3 m/s 710 mmHg 18%
    20:00 +23°C° 0 mm 4 m/s 711 mmHg 19%
    21:00 +23°C° 0 mm 5 m/s 711 mmHg 20%
    22:00 +22°C° 0 mm 5 m/s 712 mmHg 21%
    23:00 +21°C° 0 mm 5 m/s 712 mmHg 18%

    Mâine, 24 Ianuarie, Joi

    Timp Temperatura Precipitaţii Vânt Presiune Umiditate
    00:00 +19°C° 0 mm 5 m/s 712 mmHg 16%
    01:00 +16°C° 0 mm 5 m/s 712 mmHg 14%
    02:00 +15°C° 0 mm 5 m/s 712 mmHg 17%
    03:00 +15°C° 0 mm 5 m/s 713 mmHg 19%
    04:00 +14°C° 0 mm 5 m/s 713 mmHg 22%
    05:00 +13°C° 0 mm 5 m/s 713 mmHg 25%
    06:00 +13°C° 0 mm 5 m/s 714 mmHg 28%
    07:00 +13°C° 0 mm 5 m/s 714 mmHg 31%
    08:00 +14°C° 0 mm 6 m/s 715 mmHg 27%
    09:00 +16°C° 0 mm 6 m/s 715 mmHg 24%
    10:00 +18°C° 0 mm 7 m/s 716 mmHg 20%
    11:00 +20°C° 0 mm 6 m/s 715 mmHg 18%
    12:00 +21°C° 0 mm 5 m/s 714 mmHg 16%
    13:00 +22°C° 0 mm 4 m/s 714 mmHg 14%
    14:00 +23°C° 0 mm 4 m/s 713 mmHg 13%
    15:00 +23°C° 0 mm 4 m/s 713 mmHg 13%
    16:00 +23°C° 0 mm 4 m/s 712 mmHg 13%
    17:00 +21°C° 0 mm 3 m/s 712 mmHg 14%
    18:00 +19°C° 0 mm 3 m/s 713 mmHg 16%
    19:00 +18°C° 0 mm 3 m/s 713 mmHg 17%
    20:00 +17°C° 0 mm 3 m/s 713 mmHg 18%
    21:00 +16°C° 0 mm 3 m/s 713 mmHg 18%
    22:00 +16°C° 0 mm 3 m/s 713 mmHg 19%
    23:00 +14°C° 0 mm 3 m/s 713 mmHg 19%

    Poimâine, 25 Ianuarie, Vineri

    Timp Temperatura Precipitaţii Vânt Presiune Umiditate
    00:00 +14°C° 0 mm 3 m/s 712 mmHg 20%
    01:00 +14°C° 0 mm 2 m/s 712 mmHg 20%
    02:00 +14°C° 0 mm 2 m/s 712 mmHg 20%
    03:00 +13°C° 0 mm 2 m/s 712 mmHg 21%
    04:00 +13°C° 0 mm 2 m/s 711 mmHg 21%
    05:00 +13°C° 0 mm 2 m/s 712 mmHg 21%
    06:00 +14°C° 0 mm 2 m/s 712 mmHg 20%
    07:00 +14°C° 0 mm 2 m/s 713 mmHg 20%
    08:00 +16°C° 0 mm 2 m/s 713 mmHg 18%
    09:00 +19°C° 0 mm 3 m/s 714 mmHg 15%
    10:00 +21°C° 0 mm 3 m/s 714 mmHg 13%
    11:00 +24°C° 0 mm 3 m/s 714 mmHg 12%
    12:00 +25°C° 0 mm 3 m/s 713 mmHg 11%
    13:00 +27°C° 0 mm 3 m/s 713 mmHg 10%
    14:00 +26°C° 0 mm 3 m/s 712 mmHg 10%
    15:00 +26°C° 0 mm 3 m/s 712 mmHg 10%
    16:00 +26°C° 0 mm 3 m/s 712 mmHg 9%
    17:00 +25°C° 0 mm 3 m/s 712 mmHg 10%
    18:00 +22°C° 0 mm 3 m/s 712 mmHg 11%
    19:00 +21°C° 0 mm 3 m/s 712 mmHg 12%
    20:00 +20°C° 0 mm 3 m/s 712 mmHg 12%
    21:00 +19°C° 0 mm 4 m/s 713 mmHg 13%
    22:00 +18°C° 0 mm 4 m/s 713 mmHg 13%
    23:00 +18°C° 0 mm 4 m/s 713 mmHg 14%

    26 Ianuarie, Sâmbătă

    Timp Temperatura Precipitaţii Vânt Presiune Umiditate
    00:00 +18°C° 0 mm 4 m/s 713 mmHg 15%
    01:00 +17°C° 0 mm 4 m/s 712 mmHg 15%
    02:00 +15°C° 0 mm 4 m/s 712 mmHg 16%
    03:00 +15°C° 0 mm 4 m/s 712 mmHg 17%
    04:00 +14°C° 0 mm 4 m/s 712 mmHg 18%
    05:00 +14°C° 0 mm 4 m/s 713 mmHg 18%
    06:00 +14°C° 0 mm 4 m/s 713 mmHg 18%
    07:00 +14°C° 0 mm 4 m/s 714 mmHg 18%
    08:00 +16°C° 0 mm 5 m/s 714 mmHg 17%
    09:00 +19°C° 0 mm 5 m/s 715 mmHg 15%
    10:00 +21°C° 0 mm 6 m/s 715 mmHg 13%
    11:00 +22°C° 0 mm 5 m/s 715 mmHg 12%
    12:00 +23°C° 0 mm 5 m/s 714 mmHg 11%
    13:00 +25°C° 0 mm 4 m/s 713 mmHg 11%
    14:00 +25°C° 0 mm 4 m/s 713 mmHg 11%
    15:00 +25°C° 0 mm 4 m/s 713 mmHg 11%
    16:00 +25°C° 0 mm 4 m/s 712 mmHg 11%
    17:00 +24°C° 0 mm 3 m/s 713 mmHg 12%
    18:00 +21°C° 0 mm 3 m/s 713 mmHg 13%
    19:00 +19°C° 0 mm 3 m/s 713 mmHg 15%
    20:00 +18°C° 0 mm 3 m/s 713 mmHg 16%
    21:00 +18°C° 0 mm 3 m/s 713 mmHg 17%
    22:00 +17°C° 0 mm 3 m/s 714 mmHg 18%
    23:00 +16°C° 0 mm 3 m/s 713 mmHg 19%

    27 Ianuarie, Duminică

    Timp Temperatura Precipitaţii Vânt Presiune Umiditate
    00:00 +16°C° 0 mm 3 m/s 713 mmHg 20%
    01:00 +14°C° 0 mm 3 m/s 713 mmHg 21%
    02:00 +14°C° 0 mm 4 m/s 713 mmHg 21%
    03:00 +13°C° 0 mm 4 m/s 713 mmHg 22%
    04:00 +13°C° 0 mm 5 m/s 713 mmHg 23%
    05:00 +13°C° 0 mm 5 m/s 714 mmHg 25%
    06:00 +12°C° 0 mm 5 m/s 715 mmHg 27%
    07:00 +12°C° 0 mm 5 m/s 715 mmHg 29%
    08:00 +15°C° 0 mm 5 m/s 716 mmHg 25%
    09:00 +17°C° 0 mm 6 m/s 716 mmHg 22%
    10:00 +21°C° 0 mm 7 m/s 717 mmHg 19%
    11:00 +22°C° 0 mm 7 m/s 716 mmHg 18%
    12:00 +23°C° 0 mm 6 m/s 715 mmHg 16%
    13:00 +24°C° 0 mm 6 m/s 715 mmHg 15%
    14:00 +23°C° 0 mm 6 m/s 715 mmHg 16%
    15:00 +23°C° 0 mm 6 m/s 714 mmHg 17%
    16:00 +23°C° 0 mm 6 m/s 714 mmHg 18%
    17:00 +21°C° 0 mm 5 m/s 714 mmHg 19%
    18:00 +20°C° 0 mm 5 m/s 715 mmHg 21%
    19:00 +19°C° 0 mm 4 m/s 715 mmHg 22%
    20:00 +18°C° 0 mm 4 m/s 715 mmHg 22%
    21:00 +18°C° 0 mm 4 m/s 716 mmHg 21%
    22:00 +17°C° 0 mm 4 m/s 716 mmHg 21%
    23:00 +15°C° 0 mm 4 m/s 716 mmHg 22%

    28 Ianuarie, Luni

    Timp Temperatura Precipitaţii Vânt Presiune Umiditate
    00:00 +15°C° 0 mm 4 m/s 716 mmHg 22%
    01:00 +14°C° 0 mm 4 m/s 715 mmHg 23%
    02:00 +13°C° 0 mm 4 m/s 715 mmHg 25%
    03:00 +12°C° 0 mm 4 m/s 715 mmHg 26%
    04:00 +11°C° 0 mm 4 m/s 715 mmHg 28%
    05:00 +11°C° 0 mm 4 m/s 716 mmHg 29%
    06:00 +10°C° 0 mm 3 m/s 716 mmHg 29%
    07:00 +10°C° 0 mm 3 m/s 716 mmHg 30%
    08:00 +12°C° 0 mm 3 m/s 717 mmHg 26%
    09:00 +15°C° 0 mm 4 m/s 717 mmHg 22%
    10:00 +18°C° 0 mm 4 m/s 717 mmHg 18%
    11:00 +20°C° 0 mm 4 m/s 717 mmHg 16%
    12:00 +22°C° 0 mm 3 m/s 716 mmHg 14%
    13:00 +25°C° 0 mm 3 m/s 715 mmHg 12%
    14:00 +25°C° 0 mm 3 m/s 715 mmHg 12%
    15:00 +25°C° 0 mm 3 m/s 715 mmHg 12%
    16:00 +26°C° 0 mm 3 m/s 714 mmHg 11%
    17:00 +24°C° 0 mm 3 m/s 714 mmHg 13%
    18:00 +21°C° 0 mm 3 m/s 714 mmHg 14%
    19:00 +19°C° 0 mm 3 m/s 714 mmHg 16%
    20:00 +18°C° 0 mm 3 m/s 715 mmHg 17%
    21:00 +17°C° 0 mm 3 m/s 715 mmHg 18%
    22:00 +17°C° 0 mm 4 m/s 715 mmHg 18%
    23:00 +16°C° 0 mm 3 m/s 715 mmHg 19%
    Arată mai mult